Weather History for Mobridge, SD

Change the Weather History Date:

Sunday, September 29, 2013

  Actual Average Record
Temperature  
Mean Temperature 60 °F 54 °F  
Max Temperature 77 °F 68 °F 91 °F (1931)
Min Temperature 43 °F 41 °F 20 °F (1939)
Degree Days  
Heating Degree Days 5 11  
Month to date heating degree days 67 176  
Since 1 July heating degree days 80 209  
Growing Degree Days 8 (Base 50)    
Moisture  
Dew Point 44 °F    
Average Humidity 63    
Maximum Humidity 93    
Minimum Humidity 33    
Precipitation  
Precipitation 0.00 in 0.05 in 0.88 in (1965)
Month to date precipitation 3.37 1.49  
Year to date precipitation 17.19 15.40  
Sea Level Pressure  
Sea Level Pressure 29.69 in    
Wind  
Wind Speed 8 mph (SSE)    
Max Wind Speed 18 mph    
Max Gust Speed 24 mph    
Visibility 10 miles    
Events      
T = Trace of Precipitation, MM = Missing Value Source: NWS Daily Summary

Daily Weather History Graph

Daily Weather History Graph

Search for Another Location

Airport:

Trip Planner

Search our weather history database for the weather conditions in past years. The results will help you decide how hot, cold, wet, or windy it might be!

Date:

Astronomy

Sep. 29, 2013 Rise Set
Actual Time 7:37 AM CDT 7:25 PM CDT
Civil Twilight 7:08 AM CDT 7:54 PM CDT
Nautical Twilight 6:33 AM CDT 8:28 PM CDT
Astronomical Twilight 5:58 AM CDT 9:03 PM CDT
Moon 2:07 AM CDT (9/29) 4:34 PM CDT (9/29)
Length of Visible Light 12h 46m
Length of Day
11h 47m
Waning Crescent, 27% of the Moon is Illuminated
Sep 29
Waning Crescent
Oct 4
New
Oct 11
First Quarter
Oct 18
Full
Oct 26
Last Quarter

Hourly Weather History & Observations

Time (CDT) Temp. Windchill Dew Point Humidity Pressure Visibility Wind Dir Wind Speed Gust Speed Precip Events Conditions
12:52 AM 48.0 °F - 41.0 °F 77% 29.85 in 10.0 mi SSE 6.9 mph - N/A   Clear
1:52 AM 46.0 °F 42.5 °F 39.9 °F 79% 29.85 in 10.0 mi South 6.9 mph - N/A   Clear
2:52 AM 43.0 °F 38.8 °F 39.0 °F 86% 29.85 in 10.0 mi SSE 6.9 mph - N/A   Clear
3:52 AM 46.0 °F 41.4 °F 41.0 °F 83% 29.82 in 10.0 mi South 9.2 mph - N/A   Clear
4:52 AM 46.0 °F 43.1 °F 42.1 °F 86% 29.82 in 10.0 mi SE 5.8 mph - N/A   Clear
5:52 AM 46.9 °F - 43.0 °F 86% 29.81 in 10.0 mi ESE 4.6 mph - N/A   Clear
6:52 AM 45.0 °F 40.6 °F 43.0 °F 93% 29.79 in 10.0 mi ESE 8.1 mph - N/A   Clear
7:52 AM 46.9 °F - 44.1 °F 90% 29.79 in 10.0 mi SSE 9.2 mph - N/A   Clear
8:52 AM 51.1 °F - 46.0 °F 83% 29.78 in 10.0 mi South 9.2 mph - N/A   Clear
9:52 AM 55.0 °F - 46.9 °F 74% 29.77 in 10.0 mi SSE 10.4 mph - N/A   Clear
10:52 AM 60.1 °F - 48.0 °F 64% 29.73 in 10.0 mi SSE 12.7 mph - N/A   Clear
11:52 AM 64.0 °F - 48.0 °F 56% 29.69 in 10.0 mi SSE 15.0 mph - N/A   Clear
12:52 PM 68.0 °F - 45.0 °F 43% 29.67 in 10.0 mi South 17.3 mph - N/A   Clear
1:52 PM 70.0 °F - 44.1 °F 39% 29.63 in 10.0 mi South 15.0 mph 23.0 mph N/A   Clear
2:52 PM 73.0 °F - 43.0 °F 34% 29.61 in 10.0 mi SSW 13.8 mph 18.4 mph N/A   Clear
3:52 PM 73.9 °F - 42.1 °F 32% 29.58 in 10.0 mi WSW 8.1 mph - N/A   Clear
4:52 PM 73.9 °F - 42.1 °F 32% 29.57 in 10.0 mi WSW 10.4 mph - N/A   Clear
5:52 PM 73.0 °F - 46.0 °F 38% 29.57 in 10.0 mi West 3.5 mph - N/A   Clear
6:52 PM 68.0 °F - 48.0 °F 49% 29.57 in 10.0 mi Calm Calm - N/A   Clear
7:52 PM 57.0 °F - 46.9 °F 69% 29.59 in 10.0 mi East 3.5 mph - N/A   Clear
8:52 PM 60.1 °F - 46.9 °F 62% 29.58 in 10.0 mi East 4.6 mph - N/A   Clear
9:52 PM 57.0 °F - 46.9 °F 69% 29.57 in 10.0 mi Calm Calm - N/A   Clear
10:52 PM 57.0 °F - 46.0 °F 67% 29.54 in 10.0 mi ESE 5.8 mph - N/A   Clear
11:52 PM 57.0 °F - 48.0 °F 72% 29.55 in 10.0 mi ESE 5.8 mph - N/A   Clear